Regional Weather Roundup
Issued by NWS

Home | Current Version | Previous Version | Graphics & Text | Print | Product List | Glossary On
Versions: 1 2 3 4 5 6 7 8 9 10 11 12 13 14 15 16 17 18 19 20 21 22 23 24 25 26 27 28 29 30 31 32 33 34 35 36 37 38 39 40 41 42 43 44 45 46 47 48 49 50
000
ASUS43 KMPX 290310
RWRMN
WEATHER ROUNDUP FOR MINNESOTA
NATIONAL WEATHER SERVICE TWIN CITIES/CHANHASSEN MN
900 PM CST SUN DEC 28 2014


NOTE: "FAIR" INDICATES FEW OR NO CLOUDS BELOW 12,000 FEET WITH NO
SIGNIFICANT WEATHER AND/OR OBSTRUCTIONS TO VISIBILITY. N/A MEANS
CURRENT SKY AND/OR WEATHER CONDITIONS ARE NOT AVAILABLE.

MNZ060>063-068>070-290400-
   Twin Cities Metro

CITY           SKY/WX    TMP DP  RH WIND       PRES   REMARKS
TWIN CITIES    PTCLDY    14   4  64 NE7       30.31R WCI   4
ST PAUL        PTCLDY    11   2  67 CALM      30.33R
CRYSTAL        CLEAR     12   2  64 N3        30.30R
BLAINE         CLEAR     10   3  72 N5        30.30R WCI   2
LAKEVILLE      PTCLDY    10   7  85 N5        30.29R WCI   2
EDEN PRAIRIE   FAIR      14   3  61 N7        30.29R WCI   4
SOUTH ST PAUL  PTCLDY    16   3  56 N3        30.31R
LAKE ELMO      FAIR       5   3  92 NE3       30.31R
$$
MNZ001>005-007-008-013>017-022>024-027-028-290400-
   Northwest Minnesota

CITY           SKY/WX    TMP DP  RH WIND       PRES   REMARKS
BEMIDJI        CLEAR     -8 -12  82 NW5       30.34R WCI -19
HALLOCK        PTCLDY    -9 -15  77 NW3       30.47R
ROSEAU         PTCLDY    -8 -15  71 NW5       30.42R WCI -19
WARROAD        CLEAR     -9 -17  70 NW7       30.40R WCI -24
THIEF RVR FALL PTCLDY    -8 -11  84 NW9       30.41R WCI -25
CROOKSTON      PTCLDY    -8 -11  84 N7        30.46R WCI -22
FOSSTON        CLEAR     -9 -15  77 CALM      30.39R
DETROIT LAKES  PTCLDY     0  -4  85 N8        30.36R WCI -15
MOORHEAD       CLEAR     -2  -6  84 N10       30.44R WCI -19
PARK RAPIDS    CLEAR      0  -6  76 N6        30.32R WCI -12
MAHNOMEN       FAIR      -6 -10  81 N9        30.38R WCI -22
$$
MNZ006-009>011-018-025>026-290400-
   North Central Minnesota

CITY           SKY/WX    TMP DP  RH WIND       PRES   REMARKS
BAUDETTE       CLEAR     -6 -13  71 NW10      30.36R WCI -24
FLAG ISLAND    CLEAR    -11 -17  77 NW18      30.38R WCI -36
INTL FALLS     CLEAR     -8 -13  78 NW5       30.34R WCI -19
WASKISH        CLEAR     -2  -8  78 W9        30.37R WCI -18
BIG FORK       FAIR      -6  -9  84 CALM      30.33R
LONGVILLE      FAIR       1  -6  71 CALM      30.33R
GRAND RAPIDS   CLEAR      1  -6  71 NW12      30.29R WCI -15
CRANE LAKE     CLEAR     -6  -9  84 CALM      30.35R
ORR            FAIR      -6 -11  77 NW7       30.29R WCI -20
COOK           CLEAR     -6  -9  84 NW6       30.32R WCI -18
WALKER         FAIR      -3  -8  79 NW3       30.33S
$$
MNZ012-019>021-037-290400-
   Northeast Minnesota

CITY           SKY/WX    TMP DP  RH WIND       PRES   REMARKS
DULUTH         CLEAR      3  -6  66 NW9       30.26R WCI -12
ELY            CLEAR     -6 -11  77 W3        30.28R
HIBBING        FAIR       0  -9  65 N7        30.30R WCI -13
EVELETH        CLEAR      3  -6  66 NW6       30.30S WCI  -8
DULUTH HARBOR  CLEAR     10  -2  56 CALM      30.36R
TWO HARBORS    CLEAR      7  -4  61 N5        30.26R WCI  -2
SILVER BAY     CLEAR      3  -6  66 CALM      30.26R
GRAND MARAIS     N/A      3  -7  63 VRB5      30.32R WCI  -6
G MARAIS ARPRT PTCLDY    -6 -11  77 NW13G18   30.16R WCI -25
$$
MNZ029>031-032-039>041-046>048-054>057-064-290400-
   West Central Minnesota

CITY           SKY/WX    TMP DP  RH WIND       PRES   REMARKS
FERGUS FALLS   PTCLDY     3  -6  66 N7        30.40R WCI  -9
WHEATON        PTCLDY     1  -2  85 N13       30.39R WCI -16
MORRIS         PTCLDY     9   5  85 N9        30.32R WCI  -5
ALEXANDRIA     PTCLDY    10   0  63 N9        30.30R WCI  -3
ELBOW LAKE     FAIR       7   2  80 N6        30.33R WCI  -4
WADENA         PTCLDY     3  -2  78 N8        30.32R WCI -10
GLENWOOD       PTCLDY     9   1  72 N7        30.30R WCI  -3
APPLETON       CLOUDY    10   7  85 N13       30.33R WCI  -5
BENSON         PTCLDY    10   3  72 N6        30.32R WCI   1
ORTONVILLE     CLOUDY     7   1  78 N15       30.34R WCI -11
MADISON        CLOUDY    12   7  79 N13       30.34R WCI  -3
WILLMAR        FAIR      14   5  67 N7        30.31R WCI   4
$$
MNZ033>034-036-042>043-049>051-058-059-290400-
   Central Minnesota

CITY           SKY/WX    TMP DP  RH WIND       PRES   REMARKS
ST CLOUD       CLEAR     12   1  61 N7        30.31R WCI   1
SAUK CENTRE    FAIR       9   0  66 N6        30.31R WCI  -1
PAYNESVILLE    PTCLDY     8   1  72 N5        30.32R WCI   0
AITKIN         CLEAR      7  -2  66 NW3       30.31R
PINE RIVER     CLEAR      1  -4  78 NW7       30.35R WCI -11
BRAINERD       CLEAR      5  -2  72 N8        30.32R WCI  -8
STAPLES        CLEAR      3  -2  78 N6        30.32R WCI  -8
LONG PRAIRIE   FAIR       9   0  66 N8        30.30R WCI  -4
LITTLE FALLS   CLEAR      9   0  66 CALM      30.33R
LITCHFIELD     PTCLDY    12   3  67 N6        30.31R WCI   3
BUFFALO        PTCLDY    10   0  66 CALM      30.32R
MAPLE LAKE     PTCLDY    10   3  71 N5        30.31R WCI   2
$$
MNZ037-044-045-052-053-290400-
   East Central Minnesota

CITY           SKY/WX    TMP DP  RH WIND       PRES   REMARKS
PRINCETON      CLEAR      9   0  66 CALM      30.31R
MORA           CLEAR      9  -2  61 N3        30.32R
CAMBRIDGE      CLEAR     10   0  61 CALM      30.30R
RUSH CITY      CLEAR      8  -1  67 N5        30.32R WCI  -1
MOOSE LAKE     CLEAR      3  -4  72 CALM      30.30S
HINCKLEY       FAIR       9   0  66 CALM      30.31S
CLOQUET        CLEAR      1  -6  71 NW6       30.29R WCI -10
MCGREGOR       CLEAR      5   0  78 NW3       30.31S
$$
MNZ071>073-080-081-089-090-097-098-290400-
   Southwest Minnesota

CITY           SKY/WX    TMP DP  RH WIND       PRES   REMARKS
MONTEVIDEO     CLOUDY    12   7  79 N7        30.33R WCI   2
GRANITE FALLS  CLOUDY    13   8  80 NW9       30.32R WCI   1
CANBY          CLOUDY    10   6  81 N8        30.33R WCI  -2
MARSHALL       CLOUDY    12   5  73 N12       30.30R WCI  -2
REDWOOD FALLS  CLOUDY    18  11  74 NE5       30.30R WCI  11
OLIVIA         MOCLDY    16  10  79 NE6       30.29R WCI   7
PIPESTONE      CLOUDY    12  10  92 NE14      30.24R WCI  -3
WINDOM         CLOUDY    19  18  93 CALM      30.26R
WORTHINGTON    CLOUDY    18 -27  12 NE8       30.25R WCI   7
JACKSON        MOCLDY    19  18  93 NE3       30.25R
TRACY          CLOUDY    15  12  85 N10       30.28R WCI   3
SLAYTON        CLOUDY    14  12  90 N10       30.26R WCI   1
$$
MNZ065>067-074>077-082>085-091>093-290400-
   South Central Minnesota

CITY           SKY/WX    TMP DP  RH WIND       PRES   REMARKS
MANKATO        PTCLDY    12   7  79 CALM      30.28R
NEW ULM        CLOUDY    16  10  79 NE5       30.29R WCI   9
ST JAMES       CLOUDY    16  12  86 CALM      30.29R FOG
FAIRMONT       CLOUDY    16  12  86 N5        30.25R WCI   9
GLENCOE        PTCLDY    14   6  70 N5        30.29R WCI   6
FARIBAULT      PTCLDY    10   9  92 N3        30.27S
OWATONNA       PTCLDY    10   7  85 CALM      30.26R FOG
WASECA         MOCLDY    12   9  85 NE3       30.28R FOG
ALBERT LEA     MOCLDY    14  12  92 NE5       30.24S FOG     WCI   6
$$
MNZ078>079-086>088-094>096-290400-
   Southeast Minnesota

CITY           SKY/WX    TMP DP  RH WIND       PRES   REMARKS
ROCHESTER      PTCLDY    12  10  92 NE5       30.25R WCI   4
RED WING       PTCLDY    12   7  79 NE3       30.29R
STANTON        MOCLDY     6   2  85 CALM      30.28R FOG
DODGE CENTER   PTCLDY    12  10  92 CALM      30.25R FOG
WINONA         CLEAR     12  10  92 CALM      30.30R
AUSTIN         MOCLDY    12  10  92 NE6       30.24S WCI   3
PRESTON        MOCLDY    13  11  90 CALM      30.25R
$$
ABBREVIATIONS USED IN REMARKS
   TC - TEMPERATURES IN CELSIUS
  WCI - WIND CHILL INDEX
   HX - HEAT INDEX
  VSB - VISIBILITY
$$


USA.gov is the U.S. government's official web portal to all federal, state and local government web resources and services.